Vertical_Velocity
3 1 7 3 3 5 18 1 6 -16 17 13 -1 -0 -5 -5 -3 7 -2 1 2 -4 -1 1 5 -12 -18 -3 -8 -2 -19 -2 0 -20 -11 -6 -6 -10 -2 2 -4 -4 2 2
5 3 8 5 6 -10 4 -3 -6 10 -2 3 -0 1 -2 -4 10 -2 3 -0 2 1 -1 5 3 -1 -14 -0 2 -13 -9 -2 3 3 18 11 5 -3 -2 0 4 -7 4 -1
-3 6 7 7 0 1 -5 5 3 6 26 3 -2 0 -2 3 0 1 -0 -9 7 9 4 1 -4 1 -3 -1 -1 1 6 0 -8 -16 -27 -7 9 2 1 1 8 -7 -10 -4
6 6 5 -2 1 2 2 5 -2 -8 -1 4 0 3 -3 1 3 -1 4 11 -1 -3 4 1 -1 -1 4 6 -6 2 -2 -2 4 -3 -1 3 -7 -3 -1 4 -11 4 -13 1
11 7 3 -0 1 11 12 -10 -5 10 -1 1 8 -0 -4 -4 3 -7 -1 3 -3 2 1 -11 -6 5 -0 -15 7 1 1 -4 3 -2 0 1 2 0 0 -0 -1 4 3 -7
6 2 2 -1 4 4 -8 3 -2 -5 -5 1 5 -8 -7 -9 4 1 -12 -10 3 8 -19 -6 -11 -9 -3 -0 -7 -1 0 -2 5 -6 0 1 9 -12 -3 -3 0 0 4 -20
0 5 1 -1 -5 1 -2 -7 1 5 -4 2 -2 1 -1 -1 -8 -10 -8 7 9 -30 7 -6 -12 1 0 -0 0 -2 -1 -2 0 0 -2 5 -16 -1 0 1 -3 -0 3 -2
12 8 -1 -2 3 0 11 -3 -3 -2 -2 -2 3 0 -0 3 -2 6 -2 -6 -36 16 -1 -3 -2 -5 -1 -0 -0 1 -1 -2 -1 -3 -1 -4 -8 -3 1 2 -21 -3 0 -3
-6 3 1 -4 -2 1 5 4 2 3 4 -10 -2 1 2 -2 -1 7 -8 15 14 4 -2 -2 -2 -2 -2 4 6 1 3 0 -5 1 -1 -5 -7 -7 -2 1 -9 -2 2 -1
-10 10 6 4 3 3 3 1 -5 5 2 -12 8 -1 -1 3 0 0 1 -2 9 9 -0 -0 -1 -0 -6 -3 -2 0 2 3 -3 1 -1 -4 -5 -2 5 24 -10 1 3 2
1 -3 -0 10 5 3 1 -1 1 -9 -1 1 2 3 3 -4 2 -2 -2 5 7 5 7 1 -2 -0 -2 0 -6 -8 -8 -5 -1 3 1 -12 -3 11 2 -7 4 -2 -2 1
0 2 8 6 5 5 9 6 1 20 1 -2 -0 -4 -3 -5 -4 0 4 -2 -1 -3 0 1 -1 1 2 -4 -1 5 7 -12 -11 -12 -16 -3 5 -3 -5 -2 -2 -2 0 -2
1 1 -2 -2 -4 1 3 2 9 7 1 -5 -0 -4 -0 1 4 8 9 6 -3 -2 2 0 -0 -3 1 -1 -2 1 3 1 0 -2 -3 -3 -2 2 7 -5 -3 -2 -2 -2
-5 -0 -1 -2 2 -2 8 -8 2 3 1 2 1 -7 7 -5 2 -3 7 21 2 -6 3 -1 -1 -2 -0 0 -4 -4 -3 1 -3 -1 -2 7 0 -1 -0 1 5 -1 2 -4
10 3 1 -0 1 2 19 7 -3 9 -10 0 2 1 -13 4 4 5 -0 7 -6 -0 -0 -1 -0 0 -6 -0 -3 0 -2 -5 -4 -7 -6 -5 -3 -3 -2 -5 -3 -0 -1 4
-0 8 17 3 11 12 5 -6 -3 2 15 -7 2 -6 -5 -0 -6 19 2 12 3 -1 -4 1 2 -8 -0 -2 -1 -4 2 3 -5 -2 2 1 -5 -1 -5 -5 -2 2 3 4
-8 6 7 -1 -4 16 1 -2 -11 -6 11 -7 2 3 -2 -7 1 -1 -3 -2 0 -4 1 -0 -2 1 -3 0 -1 -1 -3 -0 -0 -3 -2 3 6 -2 -1 1 -1 -7 -1 -5
-1 -15 -3 11 10 8 4 -7 11 6 -4 -5 0 2 1 -2 0 -2 -4 -5 -4 -1 -1 3 -0 5 -1 0 -2 3 1 -2 1 1 -1 -7 -3 -3 -6 0 11 -3 -3 -1
-2 2 -13 -2 -14 -8 -2 -3 1 -4 2 -1 1 -2 3 -5 -0 -1 -1 -2 -3 -1 -1 -0 -4 2 -1 -4 -2 -1 -0 -6 -5 2 -3 8 1 -1 3 -0 1 -0 -5 -3
-0 1 -1 8 -12 -5 -5 2 1 1 -3 -1 0 -0 0 1 -0 2 -2 0 -0 -0 4 -4 -1 -1 -2 2 3 -3 -4 -3 -1 -0 6 4 1 -1 4 0 1 2 -2 1
17 9 1 4 2 -0 6 1 2 2 1 -0 2 0 -1 -6 -2 0 -1 1 -1 -1 2 -3 1 4 -0 6 6 3 -1 -2 -1 10 9 10 5 5 2 -2 -1 2 -3 4
2 -3 -1 6 10 0 -3 0 -1 -1 2 1 -1 2 1 -1 -3 -3 -1 -1 1 1 -1 1 1 1 -1 0 -1 -1 -5 -2 -0 1 -0 -1 0 -2 -5 -4 4 4 6 -3
-3 -1 -2 -2 -2 -3 2 -0 1 -1 1 2 2 3 -6 -1 1 -1 -1 -1 2 2 1 -2 -2 1 6 -1 -0 1 0 1 0 -1 -1 -2 -2 -2 -2 7 1 2 -5 -3
-4 0 -2 2 -0 1 2 2 2 2 1 1 -1 0 -2 1 -3 0 -3 4 1 2 1 -2 2 1 -0 -1 0 -2 2 1 -1 -2 0 -2 -3 -4 -1 1 0 1 1 1
-1 -4 1 0 2 -1 -2 -0 2 -3 5 -3 2 -1 -3 1 -1 -0 0 2 0 -1 -2 1 2 -2 -1 -1 -1 5 -1 -2 -1 -2 -2 -2 -2 -3 -4 -2 1 2 0 -1
-5 -3 0 1 0 2 0 -1 1 0 -2 -0 0 -0 -0 -0 -2 2 -2 1 -2 -1 1 5 2 2 0 -6 -2 -4 -4 -1 -3 -2 -2 -0 0 -1 -0 -1 -1 -1 -0 -1
1 0 -2 2 -0 2 1 4 5 4 -0 -0 1 0 -4 -0 1 2 -0 0 3 1 4 2 -2 1 -3 -5 -2 -1 -2 -3 -1 -0 -0 -2 -0 1 0 -0 -1 -1 -3 -3
Height
1276 1285 1297 1310 1323 1338 1352 1359 1363 1364 1370 1374 1363 1367 1377 1376 1373 1378 1383 1387 1389 1382 1384 1384 1386 1386 1385 1393 1406 1414 1421 1430 1437 1421 1423 1429 1432 1438 1442 1456 1460 1454 1456 1449
1274 1282 1293 1304 1317 1329 1342 1351 1358 1362 1364 1358 1360 1365 1366 1370 1370 1372 1379 1381 1390 1385 1379 1388 1380 1379 1385 1389 1393 1395 1414 1430 1444 1443 1432 1420 1426 1427 1431 1437 1444 1446 1461 1448
1271 1278 1289 1300 1312 1324 1337 1348 1354 1358 1356 1359 1362 1364 1362 1364 1367 1364 1369 1374 1383 1385 1382 1378 1381 1380 1380 1384 1388 1393 1400 1412 1416 1417 1410 1421 1431 1423 1421 1428 1444 1445 1433 1435
1275 1280 1288 1299 1310 1321 1332 1339 1342 1342 1349 1352 1356 1359 1354 1359 1358 1359 1365 1373 1379 1381 1383 1386 1385 1380 1381 1382 1386 1384 1391 1406 1416 1410 1404 1413 1412 1414 1413 1416 1422 1435 1432 1428
1276 1280 1290 1298 1309 1320 1329 1331 1336 1338 1341 1345 1355 1361 1350 1350 1349 1350 1360 1358 1366 1377 1372 1371 1381 1388 1380 1378 1385 1387 1390 1403 1408 1410 1404 1404 1408 1402 1405 1407 1413 1415 1421 1415
1272 1280 1288 1297 1307 1316 1321 1327 1332 1335 1331 1338 1345 1341 1346 1340 1347 1344 1352 1351 1355 1367 1362 1368 1369 1373 1380 1378 1377 1385 1391 1404 1406 1418 1403 1409 1425 1403 1396 1402 1403 1406 1414 1407
1266 1275 1285 1294 1302 1307 1316 1323 1330 1334 1332 1335 1339 1344 1343 1343 1341 1339 1339 1348 1354 1357 1368 1373 1378 1369 1375 1378 1381 1381 1389 1404 1417 1422 1423 1429 1401 1393 1394 1399 1396 1398 1400 1402
1262 1273 1282 1291 1298 1306 1316 1320 1327 1330 1328 1327 1325 1336 1338 1337 1340 1339 1335 1340 1348 1359 1366 1379 1386 1382 1386 1383 1387 1390 1396 1408 1422 1419 1423 1411 1393 1389 1395 1400 1398 1397 1400 1399
1263 1272 1280 1288 1297 1305 1314 1318 1324 1329 1331 1327 1331 1340 1338 1335 1341 1340 1335 1343 1347 1353 1365 1378 1380 1380 1383 1389 1389 1390 1394 1398 1407 1419 1419 1421 1396 1392 1391 1394 1400 1396 1398 1399
1262 1271 1280 1287 1295 1304 1312 1316 1322 1327 1329 1328 1331 1332 1336 1331 1336 1336 1333 1335 1342 1346 1354 1365 1370 1371 1366 1378 1381 1388 1395 1398 1404 1415 1411 1396 1383 1387 1387 1410 1403 1393 1397 1399
1264 1270 1277 1286 1294 1301 1309 1316 1321 1326 1328 1328 1329 1332 1334 1332 1332 1331 1328 1334 1337 1344 1348 1349 1358 1365 1368 1371 1369 1371 1378 1394 1397 1404 1407 1407 1380 1384 1390 1389 1392 1396 1399 1401
1266 1270 1277 1284 1292 1300 1310 1315 1319 1324 1328 1328 1330 1330 1330 1330 1332 1333 1325 1323 1333 1334 1335 1340 1345 1353 1351 1358 1369 1359 1370 1364 1376 1382 1384 1376 1378 1378 1384 1387 1392 1396 1399 1403
1267 1271 1277 1284 1291 1299 1307 1313 1318 1322 1324 1326 1327 1323 1326 1327 1328 1329 1328 1324 1327 1330 1332 1333 1338 1340 1343 1348 1350 1352 1358 1362 1369 1375 1371 1372 1377 1383 1384 1388 1393 1396 1399 1404
1269 1275 1281 1286 1293 1299 1306 1311 1312 1319 1324 1323 1323 1320 1321 1322 1321 1317 1314 1313 1320 1326 1328 1333 1336 1337 1340 1340 1341 1348 1353 1356 1364 1370 1368 1367 1374 1378 1383 1388 1390 1394 1399 1404
1275 1279 1283 1288 1294 1300 1305 1308 1312 1315 1322 1316 1317 1316 1316 1309 1308 1308 1307 1310 1315 1321 1328 1333 1335 1337 1337 1343 1345 1345 1346 1355 1360 1366 1366 1366 1372 1378 1383 1390 1394 1397 1400 1405
1277 1281 1285 1288 1294 1296 1303 1310 1310 1311 1313 1318 1314 1316 1316 1314 1310 1300 1301 1305 1311 1316 1326 1334 1336 1341 1345 1350 1355 1345 1345 1345 1354 1359 1365 1368 1374 1377 1385 1392 1394 1398 1403 1406
1286 1285 1286 1287 1291 1297 1301 1304 1302 1309 1314 1315 1317 1317 1315 1312 1309 1307 1308 1311 1317 1322 1327 1332 1333 1339 1342 1341 1342 1338 1343 1350 1356 1362 1365 1370 1375 1378 1384 1390 1396 1399 1403 1407
1296 1294 1293 1292 1293 1298 1300 1303 1304 1307 1309 1313 1313 1315 1315 1313 1310 1311 1313 1323 1326 1324 1331 1333 1332 1338 1341 1339 1335 1340 1347 1353 1357 1362 1367 1372 1375 1381 1388 1392 1394 1397 1402 1405
1301 1300 1300 1299 1300 1302 1304 1304 1306 1306 1311 1308 1307 1303 1312 1317 1317 1318 1320 1320 1323 1330 1332 1331 1330 1337 1336 1332 1333 1342 1350 1355 1361 1366 1369 1371 1376 1384 1388 1390 1392 1395 1399 1402
1304 1303 1302 1305 1307 1306 1306 1307 1307 1308 1308 1308 1306 1308 1311 1314 1314 1318 1321 1320 1324 1331 1334 1333 1334 1336 1334 1332 1337 1343 1352 1358 1362 1366 1369 1373 1378 1382 1385 1387 1390 1393 1396 1399
1307 1306 1305 1307 1306 1306 1303 1302 1303 1304 1308 1309 1312 1311 1313 1317 1317 1316 1318 1324 1323 1325 1334 1333 1334 1336 1335 1335 1340 1348 1355 1359 1363 1368 1371 1374 1376 1378 1382 1385 1388 1390 1393 1396
1308 1307 1305 1305 1304 1302 1302 1300 1299 1298 1305 1311 1313 1316 1318 1320 1321 1322 1324 1323 1324 1328 1331 1330 1329 1327 1334 1340 1346 1352 1357 1362 1365 1369 1371 1372 1372 1374 1378 1383 1386 1389 1391 1393
1308 1309 1308 1308 1308 1306 1301 1305 1299 1302 1304 1308 1312 1316 1321 1323 1321 1323 1321 1325 1328 1327 1331 1326 1320 1327 1334 1341 1347 1353 1357 1361 1364 1366 1367 1368 1370 1372 1376 1381 1383 1386 1389 1392
1311 1310 1313 1311 1311 1315 1316 1314 1311 1311 1309 1310 1313 1316 1318 1321 1325 1325 1326 1329 1327 1327 1327 1320 1325 1330 1336 1342 1348 1352 1356 1359 1362 1364 1367 1368 1370 1372 1376 1379 1382 1385 1388 1390
1314 1314 1315 1318 1324 1323 1321 1320 1317 1316 1315 1316 1318 1318 1319 1322 1327 1324 1330 1333 1329 1323 1316 1319 1324 1331 1337 1343 1348 1352 1354 1358 1362 1364 1367 1369 1372 1374 1376 1378 1380 1382 1385 1387
1319 1320 1319 1320 1320 1322 1322 1321 1319 1319 1319 1320 1320 1319 1322 1323 1323 1324 1325 1323 1319 1316 1320 1323 1328 1334 1338 1344 1349 1352 1356 1359 1363 1365 1368 1370 1372 1374 1376 1378 1380 1381 1383 1386
1319 1324 1325 1324 1323 1323 1323 1322 1321 1321 1321 1321 1318 1319 1318 1318 1318 1316 1314 1315 1319 1325 1328 1331 1334 1336 1340 1347 1351 1353 1356 1360 1363 1365 1368 1370 1372 1374 1375 1377 1379 1382 1384 1387